Wind_Speed
6 6 6 6 6 7 7 7 7 7 7 7 7 7 7 7 7 7 7 8 9 10 11 11 11 11 12 12 12 12 12 12 12 12 12 12 11 11 12 12 12 12 12
5 5 6 6 7 7 7 7 7 7 8 7 7 7 7 7 7 7 7 8 8 9 11 11 11 11 11 12 12 12 12 12 12 11 12 12 12 12 12 13 12 13 14
5 6 7 6 7 7 7 7 7 7 7 7 7 7 7 6 6 7 7 8 8 9 10 10 11 11 11 11 11 12 12 12 12 12 12 13 13 13 13 13 13 14 14
6 6 7 7 7 7 7 7 7 8 8 7 7 7 7 6 7 7 7 7 8 9 9 8 10 10 10 11 11 12 12 13 13 13 13 14 14 14 14 14 14 14 14
7 7 7 7 6 6 7 7 7 8 8 8 7 7 7 7 7 7 7 7 8 8 8 8 9 10 10 10 11 11 12 13 13 13 14 14 15 15 15 15 15 15 15
7 7 7 7 6 6 6 6 7 8 7 7 7 7 7 7 7 7 7 7 7 8 8 9 9 9 11 11 11 11 12 13 13 14 15 15 15 16 16 16 16 17 17
8 7 7 6 6 6 6 7 7 7 7 7 7 7 7 7 7 7 7 7 7 8 8 9 10 10 11 11 11 12 12 14 13 14 15 15 15 16 16 17 17 18 18
7 7 7 6 6 6 6 6 7 8 7 7 7 7 7 7 7 7 7 7 8 8 9 10 11 11 12 12 13 13 13 14 14 14 14 15 16 16 17 17 17 18 19
8 8 8 7 7 7 7 7 7 8 8 7 7 7 7 7 7 6 7 7 8 9 9 9 10 11 12 12 13 14 14 14 14 15 16 16 16 16 17 18 17 18 18
8 8 8 8 7 7 7 7 7 8 8 8 7 7 7 7 7 6 7 8 8 9 9 9 10 12 13 13 13 14 14 14 15 16 16 17 18 18 18 19 19 19 19
9 8 8 8 7 7 7 7 7 8 8 8 8 7 7 7 7 7 8 9 9 10 10 10 11 12 13 14 14 15 15 16 16 16 17 17 18 19 19 19 20 20 20
9 8 8 8 8 7 7 7 8 8 8 8 8 8 7 8 8 9 9 9 10 10 11 12 12 12 13 14 14 15 16 16 16 16 17 17 18 19 20 20 21 21 22
9 8 8 8 8 7 7 8 8 8 8 8 8 7 7 8 8 9 9 9 10 10 11 12 12 12 12 12 13 13 14 16 16 17 18 19 19 20 20 21 21 22 23
9 9 8 8 8 8 8 8 9 9 9 9 8 8 8 8 9 9 10 10 11 11 11 12 11 11 11 11 11 12 13 14 15 16 17 18 19 20 20 21 21 21 22
10 9 9 9 8 8 8 8 8 8 8 9 9 8 9 9 10 10 10 11 11 11 11 11 11 11 11 11 11 12 13 14 15 16 16 17 17 18 19 20 21 22 22
10 9 9 9 9 9 9 8 8 8 8 8 8 9 9 10 10 11 11 12 12 11 11 11 11 11 11 11 12 12 13 14 14 14 15 16 16 17 18 19 21 22 22
10 9 10 9 9 9 9 9 9 9 9 10 10 10 10 11 11 12 12 12 12 12 12 12 11 12 12 12 12 13 14 14 15 14 15 16 16 17 17 19 20 22 23
10 10 11 10 10 10 10 10 9 10 10 11 11 11 11 11 12 12 13 13 13 14 14 13 13 13 14 14 14 15 16 16 16 15 16 16 17 18 19 20 22 23 24
11 11 11 11 10 10 11 11 11 11 11 12 11 12 13 13 13 13 14 14 14 15 15 15 15 15 16 16 16 17 17 17 17 17 18 18 19 20 21 22 23 23 24
12 12 11 11 11 11 11 12 12 13 13 13 13 14 15 15 15 15 15 15 16 16 16 16 16 17 17 17 17 18 18 18 19 20 20 21 21 22 23 24 25 25 25
13 12 12 12 12 13 14 14 14 14 14 14 14 15 15 16 16 16 16 17 17 17 17 17 17 18 18 18 18 19 19 20 21 21 22 23 24 24 25 26 27 28 28
13 13 12 13 13 14 15 15 15 15 16 16 16 16 16 17 17 17 17 18 18 19 19 19 20 20 20 21 21 22 22 23 23 24 24 25 26 27 28 29 30 30 31
14 14 14 14 14 15 15 16 16 17 17 17 17 17 18 18 19 19 20 20 20 20 21 21 22 22 23 24 24 24 25 26 26 27 27 27 28 29 30 31 32 32 33
16 16 15 15 16 16 16 16 16 17 18 18 18 18 19 19 20 21 21 21 21 21 22 23 23 24 25 25 26 27 28 28 29 30 30 30 31 31 32 33 33 33 34
17 16 16 16 16 17 17 17 17 17 18 18 19 19 19 20 21 21 22 22 23 23 24 24 25 26 27 28 29 30 30 31 31 31 32 32 33 33 33 34 34 35 35
17 17 17 17 17 17 18 18 18 18 18 19 19 20 20 21 22 22 23 23 24 25 26 27 27 28 29 30 31 32 32 32 32 32 33 34 34 35 35 35 36 37 37
Wind_Direction
283 287 293 297 305 311 315 319 319 314 308 306 299 294 291 286 278 267 258 255 255 252 252 253 253 254 250 245 246 247 248 249 251 252 251 249 250 248 248 251 251 252 253
280 287 289 295 305 309 311 315 316 312 307 306 301 297 292 286 281 269 260 257 257 257 257 256 253 252 252 248 246 247 248 249 252 253 252 251 253 252 253 253 254 254 257
278 286 288 297 308 310 311 315 318 313 308 306 301 298 293 291 285 272 260 257 258 258 258 256 248 248 249 252 249 250 252 250 252 252 250 251 254 256 256 255 256 259 259
273 281 284 295 304 309 311 315 319 316 312 306 300 294 289 289 286 276 264 263 265 263 256 250 248 247 247 253 254 253 256 254 253 253 252 252 254 255 256 255 257 259 258
273 279 282 290 295 304 308 312 317 317 311 305 299 291 286 284 282 279 271 269 270 267 256 247 247 248 249 255 255 256 258 259 256 255 255 254 255 256 256 256 258 259 259
272 280 283 285 289 300 305 308 317 318 312 306 300 293 287 283 282 279 274 273 271 267 260 254 253 253 254 256 258 260 261 261 258 259 258 257 258 259 259 259 260 261 261
269 273 280 283 286 296 303 306 312 316 314 309 302 297 291 286 282 279 278 277 276 272 269 266 263 261 262 261 262 263 264 266 263 265 262 259 260 262 262 262 262 263 263
266 268 272 276 280 289 299 304 307 312 313 309 303 297 294 291 284 281 279 278 279 275 270 270 270 268 267 265 264 263 265 267 266 265 265 263 262 263 264 263 263 263 265
262 268 272 272 276 283 292 300 306 310 311 309 306 300 294 290 284 281 281 282 282 279 277 275 275 274 272 270 268 266 269 267 264 264 264 266 265 265 265 264 265 265 268
259 263 266 268 273 280 290 298 305 309 310 307 305 302 298 293 286 286 286 286 287 287 285 285 283 280 276 274 272 270 270 271 265 264 265 266 265 266 266 264 265 268 269
256 261 262 263 269 277 283 291 300 305 309 306 304 302 299 294 291 289 287 289 292 294 292 291 289 286 284 280 277 274 272 274 272 271 268 268 267 267 266 266 267 268 269
255 255 257 260 269 278 280 287 295 297 302 303 303 303 301 297 295 292 290 290 291 293 294 297 297 295 291 285 281 276 274 277 277 275 272 271 270 271 270 269 270 270 270
249 253 259 263 268 277 283 286 289 292 295 298 300 302 303 302 299 297 295 293 293 294 294 299 303 302 298 292 286 282 278 278 278 277 273 272 271 270 270 271 271 271 271
246 253 257 262 267 274 284 287 287 287 290 291 292 295 298 300 300 300 298 300 301 300 297 299 302 302 299 296 291 286 282 283 284 282 279 275 274 272 271 271 273 274 274
245 251 257 261 266 272 277 286 288 291 292 292 295 294 294 296 300 304 304 305 306 307 306 303 301 300 297 294 292 289 290 290 288 285 284 281 279 277 275 275 275 275 276
241 246 255 261 265 272 275 279 284 287 290 293 294 297 297 301 303 305 305 307 307 305 304 303 304 300 297 296 298 298 296 294 291 291 289 286 282 280 280 282 280 278 279
239 243 252 260 266 273 277 279 281 283 286 288 293 298 300 301 303 304 305 306 304 303 302 302 302 301 300 299 299 300 299 299 297 295 292 290 288 286 284 284 285 283 282
250 250 251 259 269 273 276 277 279 283 286 289 293 297 302 306 305 307 308 307 303 303 302 301 299 299 298 298 300 302 302 300 298 296 293 292 291 290 287 287 288 286 285
252 257 257 260 265 270 274 277 279 284 286 289 290 294 298 300 301 304 307 307 304 301 298 297 299 298 299 298 297 300 302 300 298 295 294 292 292 291 290 290 290 289 288
253 256 261 266 268 271 273 277 281 283 286 286 289 293 296 297 297 300 302 303 304 302 298 295 296 297 297 299 299 298 298 297 295 294 295 294 293 294 293 292 292 292 291
253 256 259 268 270 273 276 277 280 282 283 285 289 292 293 296 298 299 300 301 302 302 301 299 297 297 297 297 298 297 296 297 296 296 296 297 296 296 296 295 295 294 292
254 257 261 267 271 276 280 280 280 282 282 285 288 290 292 294 296 298 299 300 300 300 299 297 296 297 296 296 297 297 298 297 298 297 297 297 296 296 296 295 295 294 293
257 259 263 268 273 279 285 285 283 285 285 284 287 290 291 293 294 295 296 296 297 297 298 297 296 296 296 297 296 297 297 298 298 297 297 296 296 296 295 296 296 294 293
258 260 264 269 272 277 283 286 288 289 290 288 288 291 292 294 294 295 295 296 297 298 298 297 296 296 296 296 296 296 297 297 298 297 296 296 296 296 297 297 297 295 294
256 259 264 268 271 276 281 283 286 288 290 290 290 291 294 295 296 296 296 296 297 298 298 297 296 296 297 297 296 297 297 297 296 296 296 296 296 296 296 296 296 296 296
259 260 263 268 273 277 283 285 287 289 290 290 291 292 292 294 296 296 297 297 298 298 299 298 298 298 298 299 298 298 299 298 297 297 297 297 298 297 296 295 295 294 294
Height
5889 5888 5888 5887 5886 5886 5885 5884 5883 5882 5881 5880 5879 5878 5878 5877 5877 5877 5877 5877 5877 5878 5878 5879 5880 5880 5881 5882 5883 5884 5885 5886 5887 5887 5888 5888 5889 5890 5890 5891 5892 5893 5893
5888 5887 5887 5886 5885 5885 5884 5883 5882 5881 5880 5879 5878 5877 5876 5876 5876 5875 5875 5875 5875 5875 5876 5876 5877 5878 5879 5880 5881 5882 5882 5883 5884 5885 5885 5886 5887 5887 5888 5889 5889 5890 5891
5886 5886 5886 5885 5885 5884 5883 5881 5880 5879 5878 5877 5876 5876 5875 5874 5874 5873 5873 5873 5873 5873 5873 5874 5874 5875 5877 5878 5879 5879 5880 5880 5881 5882 5883 5883 5884 5885 5885 5886 5887 5887 5888
5885 5885 5885 5884 5883 5882 5881 5880 5879 5878 5877 5876 5875 5874 5874 5873 5872 5872 5872 5872 5872 5872 5871 5871 5872 5873 5874 5875 5876 5876 5877 5878 5878 5879 5880 5880 5881 5882 5882 5883 5884 5884 5884
5884 5884 5883 5883 5882 5881 5880 5879 5878 5877 5876 5875 5874 5873 5872 5871 5871 5871 5870 5870 5870 5870 5869 5869 5870 5871 5872 5872 5873 5874 5875 5875 5876 5876 5877 5877 5878 5879 5879 5880 5880 5881 5881
5882 5882 5882 5881 5881 5880 5879 5878 5877 5876 5874 5873 5872 5871 5870 5870 5870 5869 5869 5869 5869 5869 5868 5868 5869 5869 5870 5870 5871 5871 5872 5872 5873 5873 5874 5874 5875 5875 5876 5876 5877 5877 5877
5880 5880 5880 5880 5879 5879 5878 5877 5876 5874 5873 5872 5871 5870 5869 5868 5868 5868 5867 5867 5867 5867 5867 5867 5867 5867 5868 5868 5868 5868 5869 5869 5869 5870 5870 5871 5871 5871 5872 5872 5873 5873 5873
5879 5879 5879 5878 5878 5877 5876 5875 5875 5873 5872 5871 5870 5869 5868 5868 5867 5866 5866 5866 5866 5865 5865 5865 5865 5865 5865 5865 5865 5865 5865 5866 5866 5866 5867 5867 5867 5868 5868 5868 5869 5869 5869
5877 5877 5877 5877 5876 5876 5875 5874 5873 5872 5871 5870 5868 5868 5867 5866 5866 5866 5865 5865 5864 5864 5863 5863 5863 5863 5862 5862 5862 5862 5862 5862 5862 5863 5863 5863 5863 5864 5864 5864 5864 5865 5865
5875 5875 5875 5875 5875 5874 5873 5873 5872 5871 5870 5869 5868 5867 5866 5865 5864 5864 5864 5863 5863 5862 5862 5861 5860 5860 5859 5858 5859 5859 5859 5858 5858 5858 5859 5859 5859 5859 5859 5860 5860 5860 5860
5873 5874 5874 5873 5873 5873 5872 5871 5870 5869 5868 5867 5866 5865 5864 5864 5863 5863 5862 5862 5861 5860 5859 5858 5857 5856 5855 5854 5854 5854 5854 5854 5854 5854 5854 5854 5854 5854 5855 5855 5855 5855 5855
5872 5872 5872 5872 5871 5871 5870 5870 5869 5868 5867 5866 5865 5864 5863 5863 5862 5861 5861 5860 5859 5858 5857 5856 5854 5852 5850 5849 5849 5850 5850 5849 5849 5849 5849 5849 5849 5849 5849 5850 5850 5850 5850
5870 5870 5870 5870 5870 5869 5869 5868 5867 5866 5866 5865 5864 5863 5862 5861 5860 5860 5859 5858 5857 5856 5855 5854 5851 5848 5846 5845 5845 5845 5845 5845 5845 5844 5844 5844 5843 5844 5844 5844 5844 5844 5844
5867 5868 5868 5868 5868 5868 5867 5866 5866 5865 5864 5863 5862 5861 5860 5859 5859 5858 5857 5856 5855 5854 5853 5851 5849 5846 5844 5843 5842 5842 5842 5841 5840 5840 5839 5838 5838 5838 5838 5838 5838 5838 5838
5865 5866 5866 5866 5866 5866 5865 5865 5864 5863 5862 5861 5860 5860 5859 5858 5857 5856 5854 5853 5853 5851 5850 5849 5847 5845 5843 5841 5840 5839 5839 5838 5837 5835 5833 5833 5832 5832 5832 5832 5833 5832 5832
5863 5863 5864 5864 5864 5864 5863 5863 5862 5861 5860 5860 5859 5858 5857 5856 5855 5853 5852 5851 5849 5848 5847 5846 5844 5843 5841 5840 5839 5838 5836 5835 5833 5831 5829 5829 5828 5827 5827 5827 5827 5826 5825
5860 5861 5861 5862 5862 5861 5861 5860 5860 5859 5858 5858 5857 5856 5855 5854 5852 5851 5850 5848 5847 5846 5844 5843 5842 5840 5839 5838 5836 5835 5833 5832 5830 5828 5826 5825 5824 5823 5823 5822 5822 5820 5819
5858 5858 5859 5859 5859 5859 5858 5858 5857 5857 5856 5856 5855 5854 5852 5851 5850 5848 5847 5846 5844 5843 5842 5840 5839 5838 5837 5835 5834 5832 5831 5829 5827 5825 5823 5822 5820 5819 5818 5817 5816 5815 5813
5855 5856 5856 5856 5856 5856 5856 5855 5855 5854 5854 5853 5852 5851 5850 5848 5847 5846 5844 5843 5841 5840 5839 5837 5836 5835 5833 5832 5830 5829 5827 5825 5823 5822 5820 5818 5816 5815 5813 5812 5810 5809 5807
5852 5853 5853 5853 5853 5853 5853 5852 5852 5851 5851 5850 5849 5848 5847 5845 5844 5842 5841 5839 5838 5836 5835 5833 5832 5831 5830 5828 5826 5825 5823 5821 5819 5818 5815 5813 5811 5809 5807 5805 5804 5802 5800
5849 5849 5850 5850 5850 5850 5849 5849 5849 5848 5847 5847 5846 5844 5843 5842 5840 5839 5837 5836 5834 5833 5831 5830 5828 5827 5825 5824 5822 5821 5819 5817 5815 5813 5810 5808 5805 5803 5801 5798 5796 5794 5792
5846 5846 5846 5847 5847 5846 5846 5845 5845 5844 5844 5843 5842 5841 5839 5838 5836 5835 5833 5832 5831 5829 5827 5826 5824 5822 5821 5819 5817 5815 5814 5812 5810 5808 5805 5802 5799 5796 5793 5791 5788 5786 5783
5842 5842 5843 5843 5843 5843 5842 5841 5841 5840 5839 5839 5838 5836 5835 5834 5832 5831 5829 5828 5826 5824 5823 5821 5819 5817 5815 5814 5812 5810 5807 5805 5803 5800 5798 5795 5792 5789 5785 5782 5779 5776 5774
5838 5838 5839 5839 5839 5839 5838 5837 5837 5836 5835 5834 5833 5832 5830 5829 5828 5826 5824 5823 5821 5819 5817 5815 5814 5811 5809 5807 5805 5803 5800 5798 5795 5792 5789 5787 5784 5780 5777 5773 5770 5766 5764
5833 5834 5835 5835 5835 5835 5834 5833 5833 5832 5831 5830 5828 5827 5826 5824 5823 5821 5819 5818 5816 5813 5811 5809 5807 5805 5802 5800 5798 5795 5793 5790 5787 5784 5780 5777 5774 5771 5768 5764 5760 5756 5753
5829 5829 5830 5830 5831 5830 5830 5829 5828 5827 5826 5825 5824 5822 5821 5819 5818 5816 5814 5812 5810 5808 5805 5803 5800 5798 5795 5792 5790 5787 5784 5781 5777 5775 5771 5768 5764 5761 5758 5755 5750 5746 5742